Year,Month,Day,Hour,Minute,Value (Times are PST for temperature in C)
2009,05,16,00,00,10.70
2009,05,16,00,01,10.70
2009,05,16,00,02,10.60
2009,05,16,00,03,10.60
2009,05,16,00,04,10.60
2009,05,16,00,05,10.60
2009,05,16,00,06,10.60
2009,05,16,00,07,10.50
2009,05,16,00,08,10.50
2009,05,16,00,09,10.50
2009,05,16,00,10,10.50
2009,05,16,00,11,10.40
2009,05,16,00,12,10.40
2009,05,16,00,13,10.40
2009,05,16,00,14,10.30
2009,05,16,00,15,10.30
2009,05,16,00,16,10.30
2009,05,16,00,17,10.30
2009,05,16,00,18,10.20
2009,05,16,00,19,10.20
2009,05,16,00,20,10.20
2009,05,16,00,21,10.20
2009,05,16,00,22,10.20
2009,05,16,00,23,10.10
2009,05,16,00,24,10.10
2009,05,16,00,25,10.10
2009,05,16,00,26,10.10
2009,05,16,00,27,10.10
2009,05,16,00,28,10.00
2009,05,16,00,29,10.00
2009,05,16,00,30,10.00
2009,05,16,00,31,10.00
2009,05,16,00,32,9.90
2009,05,16,00,33,9.90
2009,05,16,00,34,9.90
2009,05,16,00,35,9.90
2009,05,16,00,36,9.90
2009,05,16,00,37,9.80
2009,05,16,00,38,9.80
2009,05,16,00,39,9.80
2009,05,16,00,40,9.80
2009,05,16,00,41,9.80
2009,05,16,00,42,9.80
2009,05,16,00,43,9.80
2009,05,16,00,44,9.80
2009,05,16,00,45,9.80
2009,05,16,00,46,9.80
2009,05,16,00,47,9.80
2009,05,16,00,48,9.80
2009,05,16,00,49,9.80
2009,05,16,00,50,9.80
2009,05,16,00,51,9.80
2009,05,16,00,52,9.80
2009,05,16,00,53,9.90
2009,05,16,00,54,9.90
2009,05,16,00,55,9.90
2009,05,16,00,56,9.90
2009,05,16,00,57,9.90
2009,05,16,00,58,9.90
2009,05,16,00,59,9.90
2009,05,16,01,00,9.90
2009,05,16,01,01,9.90
2009,05,16,01,02,9.90
2009,05,16,01,03,9.90
2009,05,16,01,04,9.90
2009,05,16,01,05,9.90
2009,05,16,01,06,9.90
2009,05,16,01,07,9.90
2009,05,16,01,08,9.90
2009,05,16,01,09,9.90
2009,05,16,01,10,9.90
2009,05,16,01,11,9.90
2009,05,16,01,12,9.90
2009,05,16,01,13,9.90
2009,05,16,01,14,9.80
2009,05,16,01,15,9.80
2009,05,16,01,16,9.80
2009,05,16,01,17,9.80
2009,05,16,01,18,9.80
2009,05,16,01,19,9.80
2009,05,16,01,20,9.80
2009,05,16,01,21,9.70
2009,05,16,01,22,9.70
2009,05,16,01,23,9.70
2009,05,16,01,24,9.70
2009,05,16,01,25,9.60
2009,05,16,01,26,9.60
2009,05,16,01,27,9.60
2009,05,16,01,28,9.60
2009,05,16,01,29,9.60
2009,05,16,01,30,9.50
2009,05,16,01,31,9.50
2009,05,16,01,32,9.40
2009,05,16,01,33,9.40
2009,05,16,01,34,9.40
2009,05,16,01,35,9.40
2009,05,16,01,36,9.40
2009,05,16,01,37,9.40
2009,05,16,01,38,9.30
2009,05,16,01,39,9.30
2009,05,16,01,40,9.30
2009,05,16,01,41,9.30
2009,05,16,01,42,9.30
2009,05,16,01,43,9.40
2009,05,16,01,44,9.40
2009,05,16,01,45,9.40
2009,05,16,01,46,9.40
2009,05,16,01,47,9.40
2009,05,16,01,48,9.40
2009,05,16,01,49,9.40
2009,05,16,01,50,9.40
2009,05,16,01,51,9.50
2009,05,16,01,52,9.50
2009,05,16,01,53,9.50
2009,05,16,01,54,9.60
2009,05,16,01,55,9.60
2009,05,16,01,56,9.60
2009,05,16,01,57,9.60
2009,05,16,01,58,9.60
2009,05,16,01,59,9.60
2009,05,16,02,00,9.60
2009,05,16,02,01,9.60
2009,05,16,02,02,9.60
2009,05,16,02,03,9.60
2009,05,16,02,04,9.60
2009,05,16,02,05,9.60
2009,05,16,02,06,9.60
2009,05,16,02,07,9.60
2009,05,16,02,08,9.60
2009,05,16,02,09,9.70
2009,05,16,02,10,9.70
2009,05,16,02,11,9.70
2009,05,16,02,12,9.70
2009,05,16,02,13,9.70
2009,05,16,02,14,9.70
2009,05,16,02,15,9.70
2009,05,16,02,16,9.70
2009,05,16,02,17,9.70
2009,05,16,02,18,9.70
2009,05,16,02,19,9.70
2009,05,16,02,20,9.70
2009,05,16,02,21,9.70
2009,05,16,02,22,9.70
2009,05,16,02,23,9.70
2009,05,16,02,24,9.70
2009,05,16,02,25,9.70
2009,05,16,02,26,9.70
2009,05,16,02,27,9.70
2009,05,16,02,28,9.70
2009,05,16,02,29,9.70
2009,05,16,02,30,9.60
2009,05,16,02,31,9.60
2009,05,16,02,32,9.60
2009,05,16,02,33,9.60
2009,05,16,02,34,9.60
2009,05,16,02,35,9.60
2009,05,16,02,36,9.60
2009,05,16,02,37,9.60
2009,05,16,02,38,9.60
2009,05,16,02,39,9.60
2009,05,16,02,40,9.50
2009,05,16,02,41,9.50
2009,05,16,02,42,9.40
2009,05,16,02,43,9.40
2009,05,16,02,44,9.40
2009,05,16,02,45,9.40
2009,05,16,02,46,9.30
2009,05,16,02,47,9.30
2009,05,16,02,48,9.30
2009,05,16,02,49,9.30
2009,05,16,02,50,9.20
2009,05,16,02,51,9.20
2009,05,16,02,52,9.20
2009,05,16,02,53,9.20
2009,05,16,02,54,9.10
2009,05,16,02,55,9.10
2009,05,16,02,56,9.10
2009,05,16,02,57,9.00
2009,05,16,02,58,9.00
2009,05,16,02,59,8.90
2009,05,16,03,00,8.90
2009,05,16,03,01,8.90
2009,05,16,03,02,8.80
2009,05,16,03,03,8.80
2009,05,16,03,04,8.80
2009,05,16,03,05,8.70
2009,05,16,03,06,8.70
2009,05,16,03,07,8.70
2009,05,16,03,08,8.70
2009,05,16,03,09,8.70
2009,05,16,03,10,8.60
2009,05,16,03,11,8.60
2009,05,16,03,12,8.60
2009,05,16,03,13,8.60
2009,05,16,03,14,8.60
2009,05,16,03,15,8.50
2009,05,16,03,16,8.50
2009,05,16,03,17,8.50
2009,05,16,03,18,8.50
2009,05,16,03,19,8.40
2009,05,16,03,20,8.40
2009,05,16,03,21,8.40
2009,05,16,03,22,8.40
2009,05,16,03,23,8.40
2009,05,16,03,24,8.40
2009,05,16,03,25,8.40
2009,05,16,03,26,8.30
2009,05,16,03,27,8.30
2009,05,16,03,28,8.30
2009,05,16,03,29,8.30
2009,05,16,03,30,8.30
2009,05,16,03,31,8.30
2009,05,16,03,32,8.30
2009,05,16,03,33,8.30
2009,05,16,03,34,8.30
2009,05,16,03,35,8.30
2009,05,16,03,36,8.30
2009,05,16,03,37,8.30
2009,05,16,03,38,8.20
2009,05,16,03,39,8.20
2009,05,16,03,40,8.20
2009,05,16,03,41,8.20
2009,05,16,03,42,8.20
2009,05,16,03,43,8.20
2009,05,16,03,44,8.20
2009,05,16,03,45,8.20
2009,05,16,03,46,8.10
2009,05,16,03,47,8.10
2009,05,16,03,48,8.10
2009,05,16,03,49,8.10
2009,05,16,03,50,8.10
2009,05,16,03,51,8.10
2009,05,16,03,52,8.10
2009,05,16,03,53,8.00
2009,05,16,03,54,8.00
2009,05,16,03,55,8.00
2009,05,16,03,56,8.00
2009,05,16,03,57,7.90
2009,05,16,03,58,7.90
2009,05,16,03,59,7.90
2009,05,16,04,00,7.90
2009,05,16,04,01,7.90
2009,05,16,04,02,7.90
2009,05,16,04,03,7.90
2009,05,16,04,04,7.90
2009,05,16,04,05,7.90
2009,05,16,04,06,7.90
2009,05,16,04,07,7.90
2009,05,16,04,08,7.80
2009,05,16,04,09,7.80
2009,05,16,04,10,7.80
2009,05,16,04,11,7.80
2009,05,16,04,12,7.80
2009,05,16,04,13,7.80
2009,05,16,04,14,7.80
2009,05,16,04,15,7.80
2009,05,16,04,16,7.80
2009,05,16,04,17,7.80
2009,05,16,04,18,7.80
2009,05,16,04,19,7.80
2009,05,16,04,20,7.80
2009,05,16,04,21,7.80
2009,05,16,04,22,7.80
2009,05,16,04,23,7.70
2009,05,16,04,24,7.70
2009,05,16,04,25,7.70
2009,05,16,04,26,7.70
2009,05,16,04,27,7.80
2009,05,16,04,28,7.80
2009,05,16,04,29,7.80
2009,05,16,04,30,7.80
2009,05,16,04,31,7.80
2009,05,16,04,32,7.80
2009,05,16,04,33,7.80
2009,05,16,04,34,7.80
2009,05,16,04,35,7.80
2009,05,16,04,36,7.90
2009,05,16,04,37,7.90
2009,05,16,04,38,7.90
2009,05,16,04,39,7.90
2009,05,16,04,40,7.90
2009,05,16,04,41,7.90
2009,05,16,04,42,7.90
2009,05,16,04,43,7.90
2009,05,16,04,44,7.90
2009,05,16,04,45,8.00
2009,05,16,04,46,8.00
2009,05,16,04,47,8.10
2009,05,16,04,48,8.10
2009,05,16,04,49,8.10
2009,05,16,04,50,8.20
2009,05,16,04,51,8.20
2009,05,16,04,52,8.20
2009,05,16,04,53,8.20
2009,05,16,04,54,8.30
2009,05,16,04,55,8.30
2009,05,16,04,56,8.30
2009,05,16,04,57,8.40
2009,05,16,04,58,8.40
2009,05,16,04,59,8.40
2009,05,16,05,00,8.40
2009,05,16,05,01,8.50
2009,05,16,05,02,8.50
2009,05,16,05,03,8.60
2009,05,16,05,04,8.60
2009,05,16,05,05,8.60
2009,05,16,05,06,8.60
2009,05,16,05,07,8.70
2009,05,16,05,08,8.70
2009,05,16,05,09,8.70
2009,05,16,05,10,8.70
2009,05,16,05,11,8.70
2009,05,16,05,12,8.70
2009,05,16,05,13,8.70
2009,05,16,05,14,8.70
2009,05,16,05,15,8.70
2009,05,16,05,16,8.70
2009,05,16,05,17,8.70
2009,05,16,05,18,8.70
2009,05,16,05,19,8.70
2009,05,16,05,20,8.70
2009,05,16,05,21,8.70
2009,05,16,05,22,8.70
2009,05,16,05,23,8.70
2009,05,16,05,24,8.70
2009,05,16,05,25,8.70
2009,05,16,05,26,8.70
2009,05,16,05,27,8.70
2009,05,16,05,28,8.70
2009,05,16,05,29,8.70
2009,05,16,05,30,8.70
2009,05,16,05,31,8.70
2009,05,16,05,32,8.70
2009,05,16,05,33,8.70
2009,05,16,05,34,8.60
2009,05,16,05,35,8.60
2009,05,16,05,36,8.60
2009,05,16,05,37,8.60
2009,05,16,05,38,8.60
2009,05,16,05,39,8.60
2009,05,16,05,40,8.60
2009,05,16,05,41,8.60
2009,05,16,05,42,8.60
2009,05,16,05,43,8.60
2009,05,16,05,44,8.60
2009,05,16,05,45,8.50
2009,05,16,05,46,8.50
2009,05,16,05,47,8.50
2009,05,16,05,48,8.50
2009,05,16,05,49,8.50
2009,05,16,05,50,8.50
2009,05,16,05,51,8.50
2009,05,16,05,52,8.50
2009,05,16,05,53,8.50
2009,05,16,05,54,8.50
2009,05,16,05,55,8.50
2009,05,16,05,56,8.50
2009,05,16,05,57,8.50
2009,05,16,05,58,8.50
2009,05,16,05,59,8.50
2009,05,16,06,00,8.50
2009,05,16,06,01,8.60
2009,05,16,06,02,8.60
2009,05,16,06,03,8.60
2009,05,16,06,04,8.60
2009,05,16,06,05,8.60
2009,05,16,06,06,8.60
2009,05,16,06,07,8.60
2009,05,16,06,08,8.60
2009,05,16,06,09,8.70
2009,05,16,06,10,8.70
2009,05,16,06,11,8.70
2009,05,16,06,12,8.70
2009,05,16,06,13,8.70
2009,05,16,06,14,8.80
2009,05,16,06,15,8.80
2009,05,16,06,16,8.80
2009,05,16,06,17,8.80
2009,05,16,06,18,8.90
2009,05,16,06,19,8.90
2009,05,16,06,20,8.90
2009,05,16,06,21,8.90
2009,05,16,06,22,8.90
2009,05,16,06,23,9.00
2009,05,16,06,24,9.00
2009,05,16,06,25,9.00
2009,05,16,06,26,9.00
2009,05,16,06,27,9.10
2009,05,16,06,28,9.10
2009,05,16,06,29,9.10
2009,05,16,06,30,9.10
2009,05,16,06,31,9.10
2009,05,16,06,32,9.20
2009,05,16,06,33,9.20
2009,05,16,06,34,9.20
2009,05,16,06,35,9.20
2009,05,16,06,36,9.20
2009,05,16,06,37,9.30
2009,05,16,06,38,9.30
2009,05,16,06,39,9.30
2009,05,16,06,40,9.30
2009,05,16,06,41,9.30
2009,05,16,06,42,9.40
2009,05,16,06,43,9.40
2009,05,16,06,44,9.40
2009,05,16,06,45,9.50
2009,05,16,06,46,9.50
2009,05,16,06,47,9.50
2009,05,16,06,48,9.60
2009,05,16,06,49,9.60
2009,05,16,06,50,9.60
2009,05,16,06,51,9.60
2009,05,16,06,52,9.70
2009,05,16,06,53,9.70
2009,05,16,06,54,9.70
2009,05,16,06,55,9.80
2009,05,16,06,56,9.80
2009,05,16,06,57,9.80
2009,05,16,06,58,9.80
2009,05,16,06,59,9.90
2009,05,16,07,00,9.90
2009,05,16,07,01,9.90
2009,05,16,07,02,10.00
2009,05,16,07,03,10.00
2009,05,16,07,04,10.10
2009,05,16,07,05,10.10
2009,05,16,07,06,10.10
2009,05,16,07,07,10.20
2009,05,16,07,08,10.20
2009,05,16,07,09,10.20
2009,05,16,07,10,10.20
2009,05,16,07,11,10.20
2009,05,16,07,12,10.20
2009,05,16,07,13,10.30
2009,05,16,07,14,10.30
2009,05,16,07,15,10.30
2009,05,16,07,16,10.30
2009,05,16,07,17,10.30
2009,05,16,07,18,10.30
2009,05,16,07,19,10.30
2009,05,16,07,20,10.30
2009,05,16,07,21,10.40
2009,05,16,07,22,10.40
2009,05,16,07,23,10.40
2009,05,16,07,24,10.40
2009,05,16,07,25,10.40
2009,05,16,07,26,10.40
2009,05,16,07,27,10.40
2009,05,16,07,28,10.40
2009,05,16,07,29,10.40
2009,05,16,07,30,10.40
2009,05,16,07,31,10.40
2009,05,16,07,32,10.40
2009,05,16,07,33,10.30
2009,05,16,07,34,10.30
2009,05,16,07,35,10.30
2009,05,16,07,36,10.30
2009,05,16,07,37,10.30
2009,05,16,07,38,10.30
2009,05,16,07,39,10.30
2009,05,16,07,40,10.30
2009,05,16,07,41,10.30
2009,05,16,07,42,10.30
2009,05,16,07,43,10.30
2009,05,16,07,44,10.30
2009,05,16,07,45,10.30
2009,05,16,07,46,10.30
2009,05,16,07,47,10.30
2009,05,16,07,48,10.30
2009,05,16,07,49,10.30
2009,05,16,07,50,10.30
2009,05,16,07,51,10.30
2009,05,16,07,52,10.30
2009,05,16,07,53,10.30
2009,05,16,07,54,10.30
2009,05,16,07,55,10.30
2009,05,16,07,56,10.30
2009,05,16,07,57,10.40
2009,05,16,07,58,10.40
2009,05,16,07,59,10.40
2009,05,16,08,00,10.50
2009,05,16,08,01,10.50
2009,05,16,08,02,10.60
2009,05,16,08,03,10.60
2009,05,16,08,04,10.60
2009,05,16,08,05,10.60
2009,05,16,08,06,10.70
2009,05,16,08,07,10.70
2009,05,16,08,08,10.70
2009,05,16,08,09,10.70
2009,05,16,08,10,10.70
2009,05,16,08,11,10.80
2009,05,16,08,12,10.80
2009,05,16,08,13,10.80
2009,05,16,08,14,10.80
2009,05,16,08,15,10.90
2009,05,16,08,16,10.90
2009,05,16,08,17,10.90
2009,05,16,08,18,11.00
2009,05,16,08,19,11.00
2009,05,16,08,20,11.10
2009,05,16,08,21,11.10
2009,05,16,08,22,11.10
2009,05,16,08,23,11.20
2009,05,16,08,24,11.20
2009,05,16,08,25,11.20
2009,05,16,08,26,11.30
2009,05,16,08,27,11.30
2009,05,16,08,28,11.30
2009,05,16,08,29,11.40
2009,05,16,08,30,11.40
2009,05,16,08,31,11.40
2009,05,16,08,32,11.50
2009,05,16,08,33,11.50
2009,05,16,08,34,11.60
2009,05,16,08,35,11.60
2009,05,16,08,36,11.60
2009,05,16,08,37,11.60
2009,05,16,08,38,11.70
2009,05,16,08,39,11.70
2009,05,16,08,40,11.70
2009,05,16,08,41,11.70
2009,05,16,08,42,11.70
2009,05,16,08,43,11.80
2009,05,16,08,44,11.80
2009,05,16,08,45,11.80
2009,05,16,08,46,11.80
2009,05,16,08,47,11.80
2009,05,16,08,48,11.90
2009,05,16,08,49,11.90
2009,05,16,08,50,11.90
2009,05,16,08,51,11.90
2009,05,16,08,52,11.90
2009,05,16,08,53,11.90
2009,05,16,08,54,12.00
2009,05,16,08,55,12.00
2009,05,16,08,56,12.10
2009,05,16,08,57,12.10
2009,05,16,08,58,12.10
2009,05,16,08,59,12.10
2009,05,16,09,00,12.10
2009,05,16,09,01,12.20
2009,05,16,09,02,12.20
2009,05,16,09,03,12.20
2009,05,16,09,04,12.20
2009,05,16,09,05,12.20
2009,05,16,09,06,12.20
2009,05,16,09,07,12.20
2009,05,16,09,08,12.20
2009,05,16,09,09,12.20
2009,05,16,09,10,12.20
2009,05,16,09,11,12.30
2009,05,16,09,12,12.30
2009,05,16,09,13,12.30
2009,05,16,09,14,12.30
2009,05,16,09,15,12.30
2009,05,16,09,16,12.30
2009,05,16,09,17,12.40
2009,05,16,09,18,12.40
2009,05,16,09,19,12.40
2009,05,16,09,20,12.40
2009,05,16,09,21,12.40
2009,05,16,09,22,12.40
2009,05,16,09,23,12.40
2009,05,16,09,24,12.50
2009,05,16,09,25,12.50
2009,05,16,09,26,12.60
2009,05,16,09,27,12.60
2009,05,16,09,28,12.70
2009,05,16,09,29,12.70
2009,05,16,09,30,12.80
2009,05,16,09,31,12.80
2009,05,16,09,32,12.80
2009,05,16,09,33,12.80
2009,05,16,09,34,12.80
2009,05,16,09,35,12.80
2009,05,16,09,36,12.80
2009,05,16,09,37,12.80
2009,05,16,09,38,12.70
2009,05,16,09,39,12.70
2009,05,16,09,40,12.60
2009,05,16,09,41,12.60
2009,05,16,09,42,12.60
2009,05,16,09,43,12.60
2009,05,16,09,44,12.60
2009,05,16,09,45,12.60
2009,05,16,09,46,12.60
2009,05,16,09,47,12.60
2009,05,16,09,48,12.60
2009,05,16,09,49,12.70
2009,05,16,09,50,12.70
2009,05,16,09,51,12.80
2009,05,16,09,52,12.80
2009,05,16,09,53,12.90
2009,05,16,09,54,13.00
2009,05,16,09,55,13.00
2009,05,16,09,56,13.10
2009,05,16,09,57,13.10
2009,05,16,09,58,13.20
2009,05,16,09,59,13.20
2009,05,16,10,00,13.30
2009,05,16,10,01,13.30
2009,05,16,10,02,13.40
2009,05,16,10,03,13.50
2009,05,16,10,04,13.50
2009,05,16,10,05,13.60
2009,05,16,10,06,13.60
2009,05,16,10,07,13.60
2009,05,16,10,08,13.70
2009,05,16,10,09,13.70
2009,05,16,10,10,13.70
2009,05,16,10,11,13.70
2009,05,16,10,12,13.70
2009,05,16,10,13,13.70
2009,05,16,10,14,13.70
2009,05,16,10,15,13.70
2009,05,16,10,16,13.70
2009,05,16,10,17,13.80
2009,05,16,10,18,13.80
2009,05,16,10,19,13.80
2009,05,16,10,20,13.80
2009,05,16,10,21,13.90
2009,05,16,10,22,13.90
2009,05,16,10,23,14.00
2009,05,16,10,24,14.00
2009,05,16,10,25,14.00
2009,05,16,10,26,14.10
2009,05,16,10,27,14.10
2009,05,16,10,28,14.10
2009,05,16,10,29,14.20
2009,05,16,10,30,14.20
2009,05,16,10,31,14.30
2009,05,16,10,32,14.30
2009,05,16,10,33,14.40
2009,05,16,10,34,14.50
2009,05,16,10,35,14.60
2009,05,16,10,36,14.60
2009,05,16,10,37,14.60
2009,05,16,10,38,14.60
2009,05,16,10,39,14.60
2009,05,16,10,40,14.50
2009,05,16,10,41,14.50
2009,05,16,10,42,14.50
2009,05,16,10,43,14.50
2009,05,16,10,44,14.40
2009,05,16,10,45,14.40
2009,05,16,10,46,14.40
2009,05,16,10,47,14.40
2009,05,16,10,48,14.30
2009,05,16,10,49,14.30
2009,05,16,10,50,14.30
2009,05,16,10,51,14.40
2009,05,16,10,52,14.40
2009,05,16,10,53,14.40
2009,05,16,10,54,14.50
2009,05,16,10,55,14.60
2009,05,16,10,56,14.70
2009,05,16,10,57,14.80
2009,05,16,10,58,14.80
2009,05,16,10,59,14.90
2009,05,16,11,00,14.80
2009,05,16,11,01,14.80
2009,05,16,11,02,14.60
2009,05,16,11,03,14.50
2009,05,16,11,04,14.40
2009,05,16,11,05,14.30
2009,05,16,11,06,14.30
2009,05,16,11,07,14.20
2009,05,16,11,08,14.20
2009,05,16,11,09,14.20
2009,05,16,11,10,14.30
2009,05,16,11,11,14.30
2009,05,16,11,12,14.20
2009,05,16,11,13,14.20
2009,05,16,11,14,14.20
2009,05,16,11,15,14.20
2009,05,16,11,16,14.20
2009,05,16,11,17,14.30
2009,05,16,11,18,14.30
2009,05,16,11,19,14.30
2009,05,16,11,20,14.40
2009,05,16,11,21,14.40
2009,05,16,11,22,14.50
2009,05,16,11,23,14.60
2009,05,16,11,24,14.70
2009,05,16,11,25,14.70
2009,05,16,11,26,14.70
2009,05,16,11,27,14.80
2009,05,16,11,28,14.80
2009,05,16,11,29,14.80
2009,05,16,11,30,14.90
2009,05,16,11,31,14.90
2009,05,16,11,32,15.00
2009,05,16,11,33,15.00
2009,05,16,11,34,15.00
2009,05,16,11,35,15.00
2009,05,16,11,36,15.00
2009,05,16,11,37,15.10
2009,05,16,11,38,15.10
2009,05,16,11,39,15.20
2009,05,16,11,40,15.10
2009,05,16,11,41,15.00
2009,05,16,11,42,15.00
2009,05,16,11,43,15.00
2009,05,16,11,44,14.90
2009,05,16,11,45,14.80
2009,05,16,11,46,14.80
2009,05,16,11,47,14.80
2009,05,16,11,48,14.90
2009,05,16,11,49,15.00
2009,05,16,11,50,15.00
2009,05,16,11,51,15.00
2009,05,16,11,52,15.00
2009,05,16,11,53,15.00
2009,05,16,11,54,15.00
2009,05,16,11,55,15.00
2009,05,16,11,56,15.00
2009,05,16,11,57,15.00
2009,05,16,11,58,15.00
2009,05,16,11,59,15.00
2009,05,16,12,00,14.90
2009,05,16,12,01,14.80
2009,05,16,12,02,14.90
2009,05,16,12,03,14.90
2009,05,16,12,04,15.00
2009,05,16,12,05,15.00
2009,05,16,12,06,15.00
2009,05,16,12,07,15.00
2009,05,16,12,08,15.00
2009,05,16,12,09,15.00
2009,05,16,12,10,15.00
2009,05,16,12,11,15.00
2009,05,16,12,12,14.90
2009,05,16,12,13,14.80
2009,05,16,12,14,14.60
2009,05,16,12,15,14.50
2009,05,16,12,16,14.50
2009,05,16,12,17,14.50
2009,05,16,12,18,14.50
2009,05,16,12,19,14.60
2009,05,16,12,20,14.70
2009,05,16,12,21,14.80
2009,05,16,12,22,14.90
2009,05,16,12,23,15.00
2009,05,16,12,24,15.00
2009,05,16,12,25,15.00
2009,05,16,12,26,15.00
2009,05,16,12,27,15.00
2009,05,16,12,28,15.00
2009,05,16,12,29,15.00
2009,05,16,12,30,15.00
2009,05,16,12,31,15.00
2009,05,16,12,32,15.00
2009,05,16,12,33,15.00
2009,05,16,12,34,15.00
2009,05,16,12,35,15.00
2009,05,16,12,36,15.00
2009,05,16,12,37,15.00
2009,05,16,12,38,15.00
2009,05,16,12,39,15.00
2009,05,16,12,40,15.00
2009,05,16,12,41,15.00
2009,05,16,12,42,15.10
2009,05,16,12,43,15.20
2009,05,16,12,44,15.20
2009,05,16,12,45,15.10
2009,05,16,12,46,15.10
2009,05,16,12,47,15.20
2009,05,16,12,48,15.30
2009,05,16,12,49,15.40
2009,05,16,12,50,15.40
2009,05,16,12,51,15.50
2009,05,16,12,52,15.60
2009,05,16,12,53,15.40
2009,05,16,12,54,15.30
2009,05,16,12,55,15.30
2009,05,16,12,56,15.30
2009,05,16,12,57,15.30
2009,05,16,12,58,15.20
2009,05,16,12,59,15.20
2009,05,16,13,00,15.10
2009,05,16,13,01,15.20
2009,05,16,13,02,15.20
2009,05,16,13,03,15.30
2009,05,16,13,04,15.30
2009,05,16,13,05,15.30
2009,05,16,13,06,15.30
2009,05,16,13,07,15.30
2009,05,16,13,08,15.30
2009,05,16,13,09,15.30
2009,05,16,13,10,15.30
2009,05,16,13,11,15.20
2009,05,16,13,12,15.10
2009,05,16,13,13,15.00
2009,05,16,13,14,15.00
2009,05,16,13,15,15.00
2009,05,16,13,16,15.10
2009,05,16,13,17,15.20
2009,05,16,13,18,15.20
2009,05,16,13,19,15.30
2009,05,16,13,20,15.40
2009,05,16,13,21,15.40
2009,05,16,13,22,15.40
2009,05,16,13,23,15.40
2009,05,16,13,24,15.50
2009,05,16,13,25,15.50
2009,05,16,13,26,15.60
2009,05,16,13,27,15.60
2009,05,16,13,28,15.60
2009,05,16,13,29,15.60
2009,05,16,13,30,15.60
2009,05,16,13,31,15.60
2009,05,16,13,32,15.60
2009,05,16,13,33,15.60
2009,05,16,13,34,15.70
2009,05,16,13,35,15.80
2009,05,16,13,36,15.80
2009,05,16,13,37,15.70
2009,05,16,13,38,15.60
2009,05,16,13,39,15.70
2009,05,16,13,40,15.70
2009,05,16,13,41,15.70
2009,05,16,13,42,15.80
2009,05,16,13,43,15.90
2009,05,16,13,44,16.00
2009,05,16,13,45,16.00
2009,05,16,13,46,16.00
2009,05,16,13,47,16.00
2009,05,16,13,48,16.10
2009,05,16,13,49,16.10
2009,05,16,13,50,16.10
2009,05,16,13,51,16.10
2009,05,16,13,52,16.20
2009,05,16,13,53,16.20
2009,05,16,13,54,16.20
2009,05,16,13,55,16.20
2009,05,16,13,56,16.20
2009,05,16,13,57,16.20
2009,05,16,13,58,16.10
2009,05,16,13,59,16.00
2009,05,16,14,00,15.90
2009,05,16,14,01,15.80
2009,05,16,14,02,15.70
2009,05,16,14,03,15.70
2009,05,16,14,04,15.60
2009,05,16,14,05,15.70
2009,05,16,14,06,15.70
2009,05,16,14,07,15.70
2009,05,16,14,08,15.70
2009,05,16,14,09,15.70
2009,05,16,14,10,15.60
2009,05,16,14,11,15.60
2009,05,16,14,12,15.60
2009,05,16,14,13,15.60
2009,05,16,14,14,15.60
2009,05,16,14,15,15.60
2009,05,16,14,16,15.60
2009,05,16,14,17,15.70
2009,05,16,14,18,15.70
2009,05,16,14,19,15.70
2009,05,16,14,20,15.70
2009,05,16,14,21,15.80
2009,05,16,14,22,15.80
2009,05,16,14,23,15.80
2009,05,16,14,24,15.80
2009,05,16,14,25,15.90
2009,05,16,14,26,15.90
2009,05,16,14,27,15.90
2009,05,16,14,28,15.90
2009,05,16,14,29,16.00
2009,05,16,14,30,16.20
2009,05,16,14,31,16.20
2009,05,16,14,32,16.30
2009,05,16,14,33,16.40
2009,05,16,14,34,16.50
2009,05,16,14,35,16.50
2009,05,16,14,36,16.60
2009,05,16,14,37,16.60
2009,05,16,14,38,16.70
2009,05,16,14,39,16.70
2009,05,16,14,40,16.70
2009,05,16,14,41,16.70
2009,05,16,14,42,16.70
2009,05,16,14,43,16.70
2009,05,16,14,44,16.70
2009,05,16,14,45,16.80
2009,05,16,14,46,16.80
2009,05,16,14,47,16.90
2009,05,16,14,48,17.00
2009,05,16,14,49,17.10
2009,05,16,14,50,17.10
2009,05,16,14,51,17.10
2009,05,16,14,52,17.10
2009,05,16,14,53,17.10
2009,05,16,14,54,17.00
2009,05,16,14,55,17.00
2009,05,16,14,56,17.00
2009,05,16,14,57,17.00
2009,05,16,14,58,17.00
2009,05,16,14,59,16.90
2009,05,16,15,00,16.90
2009,05,16,15,01,16.90
2009,05,16,15,02,16.90
2009,05,16,15,03,17.00
2009,05,16,15,04,17.10
2009,05,16,15,05,17.20
2009,05,16,15,06,17.30
2009,05,16,15,07,17.30
2009,05,16,15,08,17.30
2009,05,16,15,09,17.30
2009,05,16,15,10,17.30
2009,05,16,15,11,17.30
2009,05,16,15,12,17.40
2009,05,16,15,13,17.40
2009,05,16,15,14,17.40
2009,05,16,15,15,17.30
2009,05,16,15,16,17.30
2009,05,16,15,17,17.30
2009,05,16,15,18,17.40
2009,05,16,15,19,17.40
2009,05,16,15,20,17.40
2009,05,16,15,21,17.40
2009,05,16,15,22,17.30
2009,05,16,15,23,17.30
2009,05,16,15,24,17.30
2009,05,16,15,25,17.20
2009,05,16,15,26,17.20
2009,05,16,15,27,17.10
2009,05,16,15,28,17.10
2009,05,16,15,29,17.00
2009,05,16,15,30,17.00
2009,05,16,15,31,17.00
2009,05,16,15,32,17.00
2009,05,16,15,33,17.10
2009,05,16,15,34,17.20
2009,05,16,15,35,17.20
2009,05,16,15,36,17.20
2009,05,16,15,37,17.20
2009,05,16,15,38,17.20
2009,05,16,15,39,17.20
2009,05,16,15,40,17.20
2009,05,16,15,41,17.20
2009,05,16,15,42,17.30
2009,05,16,15,43,17.40
2009,05,16,15,44,17.50
2009,05,16,15,45,17.50
2009,05,16,15,46,17.60
2009,05,16,15,47,17.60
2009,05,16,15,48,17.70
2009,05,16,15,49,17.70
2009,05,16,15,50,17.70
2009,05,16,15,51,17.60
2009,05,16,15,52,17.60
2009,05,16,15,53,17.70
2009,05,16,15,54,17.60
2009,05,16,15,55,17.50
2009,05,16,15,56,17.50
2009,05,16,15,57,17.50
2009,05,16,15,58,17.50
2009,05,16,15,59,17.40
2009,05,16,16,00,17.40
2009,05,16,16,01,17.40
2009,05,16,16,02,17.40
2009,05,16,16,03,17.40
2009,05,16,16,04,17.40
2009,05,16,16,05,17.50
2009,05,16,16,06,17.50
2009,05,16,16,07,17.50
2009,05,16,16,08,17.40
2009,05,16,16,09,17.40
2009,05,16,16,10,17.50
2009,05,16,16,11,17.60
2009,05,16,16,12,17.60
2009,05,16,16,13,17.60
2009,05,16,16,14,17.60
2009,05,16,16,15,17.60
2009,05,16,16,16,17.60
2009,05,16,16,17,17.60
2009,05,16,16,18,17.60
2009,05,16,16,19,17.60
2009,05,16,16,20,17.60
2009,05,16,16,21,17.60
2009,05,16,16,22,17.60
2009,05,16,16,23,17.60
2009,05,16,16,24,17.60
2009,05,16,16,25,17.60
2009,05,16,16,26,17.60
2009,05,16,16,27,17.60
2009,05,16,16,28,17.60
2009,05,16,16,29,17.60
2009,05,16,16,30,17.60
2009,05,16,16,31,17.60
2009,05,16,16,32,17.60
2009,05,16,16,33,17.60
2009,05,16,16,34,17.60
2009,05,16,16,35,17.60
2009,05,16,16,36,17.70
2009,05,16,16,37,17.70
2009,05,16,16,38,17.70
2009,05,16,16,39,17.70
2009,05,16,16,40,17.80
2009,05,16,16,41,17.80
2009,05,16,16,42,17.80
2009,05,16,16,43,17.80
2009,05,16,16,44,17.80
2009,05,16,16,45,17.80
2009,05,16,16,46,17.90
2009,05,16,16,47,17.90
2009,05,16,16,48,17.90
2009,05,16,16,49,17.90
2009,05,16,16,50,17.90
2009,05,16,16,51,17.90
2009,05,16,16,52,17.90
2009,05,16,16,53,17.90
2009,05,16,16,54,17.90
2009,05,16,16,55,17.90
2009,05,16,16,56,17.90
2009,05,16,16,57,17.90
2009,05,16,16,58,18.00
2009,05,16,16,59,18.00
2009,05,16,17,00,17.90
2009,05,16,17,01,17.90
2009,05,16,17,02,17.80
2009,05,16,17,03,17.80
2009,05,16,17,04,17.80
2009,05,16,17,05,17.80
2009,05,16,17,06,17.80
2009,05,16,17,07,17.70
2009,05,16,17,08,17.80
2009,05,16,17,09,17.80
2009,05,16,17,10,17.80
2009,05,16,17,11,17.80
2009,05,16,17,12,17.90
2009,05,16,17,13,17.90
2009,05,16,17,14,18.00
2009,05,16,17,15,18.00
2009,05,16,17,16,18.00
2009,05,16,17,17,18.00
2009,05,16,17,18,18.00
2009,05,16,17,19,18.00
2009,05,16,17,20,18.00
2009,05,16,17,21,18.00
2009,05,16,17,22,18.00
2009,05,16,17,23,17.90
2009,05,16,17,24,17.90
2009,05,16,17,25,17.90
2009,05,16,17,26,17.90
2009,05,16,17,27,17.90
2009,05,16,17,28,17.90
2009,05,16,17,29,17.90
2009,05,16,17,30,17.90
2009,05,16,17,31,17.90
2009,05,16,17,32,17.90
2009,05,16,17,33,17.90
2009,05,16,17,34,17.90
2009,05,16,17,35,17.80
2009,05,16,17,36,17.80